Location: McFarlands Corners
(41.4117°N, 81.3382°W)
Time: 03:11:11
(UTC+00:00)

Tiros 1 - Pass Details

Date: 18 February 2026
Orbit: 618 x 649 km, 48.4° (Epoch: 7 March)

Event Time Altitude Azimuth Distance (km) Brightness Sun altitude
Rises 16:34:18 0° 284° (WNW) 2,902 10.2 35.1°
Reaches altitude 10° 16:36:49 10° 294° (WNW) 1,991 9.4 35.2°
Maximum altitude 16:40:58 33° 360° (N) 1,038 8.1 35.5°
Drops below altitude 10° 16:45:07 10° 65° (ENE) 1,982 9.7 35.7°
Sets 16:47:36 0° 75° (ENE) 2,886 10.5 35.8°
